Location: Fort Worth, Tx
(32.7431°N, 97.3695°W)
Time: 06:10:23
(UTC-05:00)

Altair - Pass Details

Date: 10 October 2023
Orbit: 1501 x 1682 km, 47.2° (Epoch: 06 December)

Event Time Altitude Azimuth Distance (km) Brightness Sun altitude
Rises 02:33:39 0° 254° (WSW) 4,685 - -63.5°
Reaches altitude 10° 02:36:47 10° 259° (W) 3,724 - -63.4°
Maximum altitude 02:45:57 52° 334° (NNW) 1,916 - -63.0°
Exits shadow 02:54:58 12° 48° (NE) 3,713 9.7 -62.4°
Drops below altitude 10° 02:55:30 10° 50° (NE) 3,872 9.8 -62.3°
Sets 02:58:51 0° 55° (NE) 4,882 10.5 -62.0°
